Location: Härggis
(46.9540°N, 8.4897°E)
Time: 07:42:58
(UTC+00:00)

Cosmos 1140 Rocket - Pass Details

Date: 07 October 2022
Orbit: 743 x 767 km, 74.1° (Epoch: 05 December)

Event Time Altitude Azimuth Distance (km) Brightness Sun altitude
Rises 17:33:13 0° 265° (W) 3,184 9.2 -7.5°
Reaches altitude 10° 17:37:28 10° 299° (WNW) 2,270 7.0 -8.2°
Maximum altitude 17:39:04 11° 317° (NW) 2,182 6.5 -8.5°
Drops below altitude 10° 17:40:41 10° 336° (NNW) 2,277 6.3 -8.7°
Sets 17:45:00 0° 10° (N) 3,213 6.6 -9.5°
